Watertown, WI

8:06 PM CST on November 11, 2019 (GMT -0600)
Watertown Municipal

Weather History for KRYV - October, 2019

Change the Weather History Date:

Sunday, October 20, 2019

  Actual Average Record
Temperature  
Mean Temperature 54 °F -  
Max Temperature 64 °F 57 °F 84 °F (1953)
Min Temperature 45 °F 36 °F 19 °F (1952)
Degree Days  
Heating Degree Days 10    
Growing Degree Days 4 (Base 50)    
Moisture  
Dew Point 46 °F    
Average Humidity 84    
Maximum Humidity 100    
Minimum Humidity 42    
Precipitation  
Precipitation 0.00 in - - ()
Sea Level Pressure  
Sea Level Pressure 29.87 in    
Wind  
Wind Speed 3 mph ()    
Max Wind Speed 8 mph    
Max Gust Speed -    
Visibility 9.3 miles    
Events      
Averages and records for this station are not official NWS values.
T = Trace of Precipitation, MM = Missing Value Source: Averaged Metar Reports

Daily Weather History Graph

Daily Weather History Graph

Search for Another Location

Airport or City:

Astronomy

Oct. 20, 2019 Rise Set
Actual Time 7:14 AM CDT 6:04 PM CDT
Civil Twilight 6:45 AM CDT 6:33 PM CDT
Nautical Twilight 6:12 AM CDT 7:06 PM CDT
Astronomical Twilight 5:39 AM CDT 7:39 PM CDT
Moon 11:06 PM CDT (10/20) 1:48 PM CDT (10/20)
Length of Visible Light 11h 47m
Length of Day
10h 49m
Waning Gibbous, 59% of the Moon is Illuminated
Oct 20
Waning Gibbous
Oct 21
Last Quarter
Oct 27
New
Nov 4
First Quarter
Nov 12
Full

Hourly Weather History & Observations

Time (CDT) Temp. Windchill Dew Point Humidity Pressure Visibility Wind Dir Wind Speed Gust Speed Precip Events Conditions
12:15 AM 50.5 °F - 50.5 °F 100% 29.76 in 10.0 mi West 4.6 mph - N/A   Overcast
12:35 AM 50.0 °F - 50.0 °F 100% 29.76 in 10.0 mi WNW 3.5 mph - N/A   Overcast
12:55 AM 50.0 °F - 50.0 °F 100% 29.76 in 10.0 mi WNW 3.5 mph - N/A   Overcast
1:15 AM 50.2 °F - 50.2 °F 100% 29.77 in 10.0 mi NW 8.1 mph - N/A   Overcast
1:35 AM 50.0 °F - 50.0 °F 100% 29.78 in 10.0 mi NW 8.1 mph - N/A   Overcast
1:55 AM 49.5 °F - 49.5 °F 100% 29.78 in 10.0 mi NW 5.8 mph - N/A   Overcast
2:15 AM 49.3 °F - 49.3 °F 100% 29.78 in 10.0 mi WNW 3.5 mph - N/A   Overcast
2:35 AM 49.1 °F - 49.1 °F 100% 29.79 in 10.0 mi WNW 4.6 mph - N/A   Overcast
2:55 AM 48.9 °F - 48.9 °F 100% 29.79 in 10.0 mi West 4.6 mph - N/A   Overcast
3:15 AM 48.6 °F - 48.6 °F 100% 29.81 in 10.0 mi West 6.9 mph - N/A   Overcast
3:35 AM 48.4 °F - 48.4 °F 100% 29.81 in 10.0 mi WNW 8.1 mph - N/A   Overcast
4:15 AM 47.7 °F - 47.7 °F 100% 29.82 in 10.0 mi NW 5.8 mph - N/A   Overcast
4:35 AM 47.3 °F - 47.3 °F 100% 29.83 in 7.0 mi WNW 5.8 mph - N/A   Overcast
4:55 AM 47.3 °F - 47.3 °F 100% 29.83 in 10.0 mi NNW 3.5 mph - N/A   Overcast
5:15 AM 47.3 °F - 47.3 °F 100% 29.84 in 10.0 mi NW 4.6 mph - N/A   Overcast
5:35 AM 47.3 °F - 47.3 °F 100% 29.85 in 10.0 mi Calm Calm - N/A   Overcast
5:55 AM 47.3 °F - 47.3 °F 100% 29.85 in 10.0 mi NNW 5.8 mph - N/A   Overcast
6:15 AM 47.3 °F - 47.3 °F 100% 29.85 in 10.0 mi Calm Calm - N/A   Overcast
6:35 AM 47.1 °F - 47.1 °F 100% 29.85 in 10.0 mi Calm Calm - N/A   Overcast
6:55 AM 46.9 °F - 46.9 °F 100% 29.86 in 10.0 mi Calm Calm - N/A   Overcast
7:15 AM 46.9 °F - 46.9 °F 100% 29.86 in 10.0 mi Calm Calm - N/A   Overcast
7:35 AM 46.9 °F - 46.9 °F 100% 29.87 in 10.0 mi Calm Calm - N/A   Overcast
7:55 AM 46.9 °F - 46.9 °F 100% 29.88 in 7.0 mi Calm Calm - N/A   Overcast
8:15 AM 47.3 °F - 47.3 °F 100% 29.89 in 5.0 mi West 4.6 mph - N/A   Overcast
8:35 AM 47.3 °F - 47.3 °F 100% 29.90 in 7.0 mi WSW 4.6 mph - N/A   Overcast
8:55 AM 46.9 °F - 46.9 °F 100% 29.91 in 7.0 mi Calm Calm - N/A   Overcast
9:15 AM 47.5 °F - 47.5 °F 100% 29.91 in 10.0 mi WSW 4.6 mph - N/A   Overcast
9:35 AM 47.5 °F - 47.5 °F 100% 29.91 in 10.0 mi Calm Calm - N/A   Overcast
9:55 AM 48.2 °F - 48.2 °F 100% 29.92 in 10.0 mi Calm Calm - N/A   Overcast
10:15 AM 48.2 °F - 48.2 °F 100% 29.92 in 10.0 mi Calm Calm - N/A   Overcast
10:35 AM 48.9 °F - 48.9 °F 100% 29.92 in 10.0 mi Calm Calm - N/A   Overcast
10:55 AM 49.5 °F - 49.5 °F 100% 29.93 in 10.0 mi Calm Calm - N/A   Overcast
1:35 PM 64.2 °F - 49.1 °F 58% 29.91 in - Calm Calm - N/A   Unknown
1:55 PM 62.4 °F - 49.1 °F 62% 29.90 in 10.0 mi Calm Calm - N/A   Clear
2:15 PM 63.7 °F - 47.8 °F 56% 29.90 in 10.0 mi Calm Calm - N/A   Clear
2:35 PM 64.2 °F - 46.9 °F 53% 29.89 in 10.0 mi Calm Calm - N/A   Clear
2:55 PM 64.8 °F - 45.3 °F 49% 29.89 in 10.0 mi Calm Calm - N/A   Clear
3:15 PM 64.8 °F - 42.4 °F 44% 29.90 in 10.0 mi Calm Calm - N/A   Clear
3:35 PM 64.6 °F - 41.9 °F 44% 29.90 in 10.0 mi Calm Calm - N/A   Clear
3:55 PM 64.9 °F - 42.1 °F 43% 29.90 in 10.0 mi Calm Calm - N/A   Clear
4:15 PM 64.9 °F - 41.5 °F 42% 29.89 in 10.0 mi Calm Calm - N/A   Clear
4:35 PM 64.4 °F - 41.2 °F 43% 29.90 in 10.0 mi Calm Calm - N/A   Clear
4:55 PM 61.3 °F - 43.0 °F 51% 29.90 in 10.0 mi Calm Calm - N/A   Clear
5:15 PM 60.4 °F - 43.0 °F 53% 29.89 in 7.0 mi East 3.5 mph - N/A   Clear
5:35 PM 58.6 °F - 44.2 °F 59% 29.90 in 7.0 mi Calm Calm - N/A   Clear
5:55 PM 57.9 °F - 43.5 °F 59% 29.90 in 10.0 mi Calm Calm - N/A   Clear
6:15 PM 53.8 °F - 43.5 °F 68% 29.91 in 10.0 mi Calm Calm - N/A   Clear
6:35 PM 54.0 °F - 43.0 °F 66% 29.91 in 7.0 mi East 5.8 mph - N/A   Clear
6:55 PM 54.0 °F - 43.0 °F 66% 29.91 in 7.0 mi ESE 3.5 mph - N/A   Clear
7:15 PM 52.9 °F - 43.7 °F 71% 29.91 in 10.0 mi East 4.6 mph - N/A   Clear
7:35 PM 52.7 °F - 44.2 °F 73% 29.91 in 10.0 mi East 5.8 mph - N/A   Clear
7:55 PM 52.3 °F - 44.6 °F 75% 29.90 in 7.0 mi East 5.8 mph - N/A   Clear
8:15 PM 52.0 °F - 44.1 °F 74% 29.90 in 7.0 mi East 4.6 mph - N/A   Clear
8:35 PM 51.1 °F - 44.6 °F 78% 29.90 in 7.0 mi East 5.8 mph - N/A   Clear
8:55 PM 50.0 °F - 44.6 °F 82% 29.90 in 7.0 mi East 5.8 mph - N/A   Clear
9:15 PM 50.0 °F - 44.6 °F 82% 29.90 in 7.0 mi East 4.6 mph - N/A   Clear
9:35 PM 48.7 °F - 44.6 °F 86% 29.90 in 10.0 mi East 5.8 mph - N/A   Clear
9:55 PM 48.4 °F - 44.6 °F 87% 29.90 in 10.0 mi East 5.8 mph - N/A   Clear
10:15 PM 48.6 °F - 44.2 °F 85% 29.90 in 10.0 mi East 5.8 mph - N/A   Clear
10:35 PM 47.7 °F - 44.1 °F 87% 29.91 in 10.0 mi East 4.6 mph - N/A   Clear
10:55 PM 46.2 °F 44.1 °F 44.4 °F 93% 29.90 in 10.0 mi ENE 4.6 mph - N/A   Clear
11:15 PM 46.0 °F 43.1 °F 45.3 °F 97% 29.89 in 10.0 mi East 5.8 mph - N/A   Clear
11:35 PM 45.9 °F 42.9 °F 45.5 °F 99% 29.89 in 10.0 mi East 5.8 mph - N/A   Clear
11:55 PM 45.1 °F 42.8 °F 45.1 °F 100% 29.89 in 10.0 mi East 4.6 mph - N/A   Clear